Santiago, Dominican Republic

8:18 AM AST on May 24, 2018 (GMT -0400)
Cibao International

Weather History for MDST - December, 2013

Change the Weather History Date:

Monday, December 2, 2013

  Actual Average Record
Temperature  
Mean Temperature 76 °F -  
Max Temperature 87 °F 84 °F 93 °F (1997)
Min Temperature 64 °F 66 °F 62 °F (2010)
Cooling Degree Days 10    
Growing Degree Days 26 (Base 50)    
Moisture  
Dew Point 69 °F    
Average Humidity 81    
Maximum Humidity 100    
Minimum Humidity 50    
Precipitation  
Precipitation 0.00 in 0.10 in - ()
Sea Level Pressure  
Sea Level Pressure 29.87 in    
Wind  
Wind Speed 3 mph ()    
Max Wind Speed 14 mph    
Max Gust Speed -    
Visibility 6.4 miles    
Events      
Averages and records for this station are not official NWS values.
T = Trace of Precipitation, MM = Missing Value Source: Averaged Metar Reports

Daily Weather History Graph

Daily Weather History Graph

Search for Another Location

Airport or City:

Astronomy

Dec. 02, 2013 Rise Set
Actual Time 7:01 AM AST 6:03 PM AST
Civil Twilight 6:37 AM AST 6:27 PM AST
Nautical Twilight 6:10 AM AST 6:54 PM AST
Astronomical Twilight 5:43 AM AST 7:21 PM AST
Moon 6:28 AM AST (12/2) 5:59 PM AST (12/2)
Length of Visible Light 11h 49m
Length of Day
11h 02m
Waning Crescent, 0% of the Moon is Illuminated
Dec 2
Waning Crescent
Dec 2
New
Dec 9
First Quarter
Dec 17
Full
Dec 25
Last Quarter

Hourly Weather History & Observations

Time (AST) Temp. Heat Index Dew Point Humidity Pressure Visibility Wind Dir Wind Speed Gust Speed Precip Events Conditions
12:00 AM 71.6 °F - 69.8 °F 94% 29.92 in 6.2 mi Calm Calm - N/A   Scattered Clouds
1:00 AM 69.8 °F - 68.0 °F 94% 29.89 in 6.2 mi Calm Calm - N/A   Partly Cloudy
2:00 AM 68.0 °F - 68.0 °F 100% 29.89 in 6.2 mi Calm Calm - N/A   Partly Cloudy
3:00 AM 68.0 °F - 68.0 °F 100% 29.89 in - Calm Calm - N/A   Partly Cloudy
4:00 AM 66.2 °F - 66.2 °F 100% 29.86 in 6.2 mi Calm Calm - N/A   Partly Cloudy
5:00 AM 66.2 °F - 66.2 °F 100% 29.86 in 6.2 mi SSW 3.5 mph - N/A   Partly Cloudy
6:00 AM 64.4 °F - 64.4 °F 100% 29.86 in 6.2 mi Calm Calm - N/A   Partly Cloudy
7:00 AM 64.4 °F - 64.4 °F 100% 29.89 in 6.2 mi West 3.5 mph - N/A   Partly Cloudy
8:00 AM 67 °F - 66 °F 95% 29.91 in 6 mi Calm Calm - -   Haze
8:00 AM 66.2 °F - 66.2 °F 100% 29.89 in 6.2 mi Calm Calm - N/A   Partly Cloudy
9:00 AM 73.4 °F - 71.6 °F 94% 29.92 in 6.2 mi Calm Calm - N/A   Partly Cloudy
10:00 AM 77.0 °F - 69.8 °F 78% 29.92 in 6.2 mi ENE 5.8 mph - N/A   Partly Cloudy
11:00 AM 78.8 °F - 71.6 °F 78% 29.92 in 6.2 mi ESE 6.9 mph - N/A   Partly Cloudy
12:00 PM 82.4 °F 85.4 °F 68.0 °F 62% 29.89 in 6.2 mi SE 13.8 mph - N/A   Partly Cloudy
1:00 PM - - - N/A% 29.86 in 6.2 mi SE 9.2 mph - N/A   Partly Cloudy
2:00 PM 86 °F - 71 °F 52% 29.82 in 9 mi East 11.2 mph - -   Haze
2:00 PM 86.0 °F 91.8 °F 71.6 °F 62% 29.80 in 6.2 mi East 11.5 mph - N/A   Scattered Clouds
3:00 PM 86.0 °F 89.4 °F 68.0 °F 55% 29.80 in 6.2 mi SE 11.5 mph - N/A   Scattered Clouds
4:00 PM 86.0 °F 89.4 °F 68.0 °F 55% 29.80 in 6.2 mi SE 11.5 mph - N/A   Scattered Clouds
5:00 PM 84 °F - 68 °F 50% 29.81 in 9 mi ESE 8.9 mph - -   Haze
6:00 PM 82.4 °F 86.3 °F 69.8 °F 66% 29.80 in 6.2 mi SE 5.8 mph - N/A   Scattered Clouds
7:00 PM 80.6 °F 83.9 °F 69.8 °F 70% 29.83 in 6.2 mi ESE 6.9 mph - N/A   Scattered Clouds
8:00 PM 78 °F - 71 °F 73% 29.86 in 7 mi ENE 4.5 mph - -   Haze
8:00 PM 78.8 °F - 71.6 °F 78% 29.86 in 6.2 mi ENE 4.6 mph - N/A   Scattered Clouds
9:00 PM 77.0 °F - 69.8 °F 78% 29.86 in 6.2 mi ESE 6.9 mph - N/A   Scattered Clouds
10:00 PM 75.2 °F - 69.8 °F 83% 29.89 in 6.2 mi ESE 4.6 mph - N/A   Scattered Clouds
11:00 PM - - - %  in 6 mi Calm Calm - -  
11:00 PM 75.2 °F - 69.8 °F 83% 29.92 in 6.2 mi Calm Calm - N/A   Partly Cloudy